TimeCDT,TemperatureF,Dew PointF,Humidity,Sea Level PressureIn,VisibilityMPH,Wind Direction,Wind SpeedMPH,Gust SpeedMPH,PrecipitationIn,Events,Conditions,WindDirDegrees,DateUTC
12:15 AM,77.0,59.0,54,29.78,10.0,South,10.4,16.1,N/A,,Clear,190,2013-07-05 05:15:00
12:36 AM,77.0,59.0,54,29.77,10.0,South,12.7,-,N/A,,Clear,180,2013-07-05 05:36:00
12:55 AM,77.0,59.0,54,29.77,10.0,South,11.5,-,N/A,,Clear,180,2013-07-05 05:55:00
1:15 AM,75.2,59.0,57,29.77,10.0,South,11.5,17.3,N/A,,Clear,180,2013-07-05 06:15:00
1:36 AM,75.2,60.8,61,29.77,10.0,South,11.5,-,N/A,,Clear,180,2013-07-05 06:36:00
1:55 AM,75.2,60.8,61,29.78,10.0,South,11.5,-,N/A,,Clear,180,2013-07-05 06:55:00
2:15 AM,75.2,60.8,61,29.78,10.0,South,9.2,17.3,N/A,,Clear,190,2013-07-05 07:15:00
2:36 AM,77.0,60.8,57,29.78,10.0,SSW,11.5,16.1,N/A,,Clear,200,2013-07-05 07:36:00
2:55 AM,75.2,60.8,61,29.78,10.0,SSW,12.7,-,N/A,,Clear,200,2013-07-05 07:55:00
3:15 AM,75.2,60.8,61,29.78,10.0,South,10.4,-,N/A,,Clear,180,2013-07-05 08:15:00
3:36 AM,73.4,60.8,65,29.78,10.0,South,10.4,17.3,N/A,,Clear,190,2013-07-05 08:36:00
3:55 AM,73.4,60.8,65,29.78,10.0,South,9.2,16.1,N/A,,Clear,190,2013-07-05 08:55:00
4:15 AM,73.4,60.8,65,29.78,10.0,SSW,8.1,-,N/A,,Clear,200,2013-07-05 09:15:00
4:36 AM,73.4,60.8,65,29.78,10.0,South,6.9,-,N/A,,Clear,190,2013-07-05 09:36:00
4:55 AM,71.6,60.8,69,29.78,10.0,South,8.1,-,N/A,,Clear,190,2013-07-05 09:55:00
5:15 AM,71.6,60.8,69,29.77,10.0,South,5.8,-,N/A,,Clear,170,2013-07-05 10:15:00
5:36 AM,69.8,60.8,73,29.77,10.0,South,5.8,-,N/A,,Clear,170,2013-07-05 10:36:00
5:55 AM,69.8,60.8,73,29.77,10.0,South,5.8,-,N/A,,Clear,180,2013-07-05 10:55:00
6:15 AM,69.8,60.8,73,29.77,10.0,South,8.1,-,N/A,,Clear,170,2013-07-05 11:15:00
6:36 AM,71.6,59.0,64,29.77,10.0,South,6.9,-,N/A,,Clear,190,2013-07-05 11:36:00
6:55 AM,71.6,59.0,64,29.77,10.0,South,8.1,-,N/A,,Clear,180,2013-07-05 11:55:00
7:15 AM,71.6,59.0,64,29.77,10.0,South,9.2,17.3,N/A,,Clear,190,2013-07-05 12:15:00
7:36 AM,71.6,60.8,69,29.77,10.0,South,6.9,-,N/A,,Clear,180,2013-07-05 12:36:00
7:55 AM,73.4,60.8,65,29.78,10.0,SSW,8.1,-,N/A,,Clear,200,2013-07-05 12:55:00
8:15 AM,71.6,60.8,69,29.78,10.0,South,9.2,-,N/A,,Clear,180,2013-07-05 13:15:00
8:36 AM,73.4,60.8,65,29.78,10.0,South,8.1,-,N/A,,Clear,190,2013-07-05 13:36:00
8:55 AM,73.4,59.0,61,29.78,10.0,SSW,10.4,-,N/A,,Clear,200,2013-07-05 13:55:00
9:15 AM,75.2,60.8,61,29.78,10.0,SSW,10.4,-,N/A,,Clear,200,2013-07-05 14:15:00
9:35 AM,75.2,60.8,61,29.78,10.0,South,10.4,-,N/A,,Clear,190,2013-07-05 14:35:00
9:55 AM,75.2,60.8,61,29.78,10.0,South,9.2,-,N/A,,Clear,180,2013-07-05 14:55:00
10:16 AM,77.0,60.8,57,29.78,10.0,SSW,10.4,-,N/A,,Clear,200,2013-07-05 15:16:00
10:35 AM,77.0,60.8,57,29.78,10.0,South,9.2,-,N/A,,Clear,190,2013-07-05 15:35:00
10:55 AM,78.8,60.8,54,29.78,10.0,SSW,6.9,-,N/A,,Clear,200,2013-07-05 15:55:00
11:16 AM,78.8,62.6,57,29.78,10.0,South,6.9,-,N/A,,Clear,170,2013-07-05 16:16:00
11:35 AM,78.8,62.6,57,29.79,10.0,SSW,6.9,-,N/A,,Clear,200,2013-07-05 16:35:00
11:55 AM,78.8,62.6,57,29.79,10.0,SSW,6.9,-,N/A,,Clear,200,2013-07-05 16:55:00
12:16 PM,80.6,62.6,54,29.79,10.0,South,9.2,-,N/A,,Clear,180,2013-07-05 17:16:00
12:35 PM,80.6,62.6,54,29.79,10.0,SSW,6.9,-,N/A,,Clear,200,2013-07-05 17:35:00
12:56 PM,78.8,62.6,57,29.79,10.0,South,8.1,-,N/A,,Clear,180,2013-07-05 17:56:00
1:15 PM,80.6,62.6,54,29.79,10.0,SW,6.9,-,N/A,,Clear,220,2013-07-05 18:15:00
1:35 PM,80.6,62.6,54,29.79,10.0,South,10.4,-,N/A,,Clear,180,2013-07-05 18:35:00
1:56 PM,80.6,62.6,54,29.79,10.0,South,10.4,-,N/A,,Clear,180,2013-07-05 18:56:00
2:15 PM,80.6,62.6,54,29.78,10.0,South,5.8,-,N/A,,Clear,190,2013-07-05 19:15:00
2:35 PM,82.4,60.8,48,29.79,10.0,SW,4.6,-,N/A,,Clear,220,2013-07-05 19:35:00
2:56 PM,82.4,62.6,51,29.79,10.0,South,4.6,-,N/A,,Clear,170,2013-07-05 19:56:00
3:15 PM,82.4,62.6,51,29.78,10.0,SW,5.8,-,N/A,,Clear,230,2013-07-05 20:15:00
3:35 PM,82.4,60.8,48,29.78,10.0,South,4.6,-,N/A,,Clear,170,2013-07-05 20:35:00
3:56 PM,82.4,60.8,48,29.78,10.0,South,4.6,-,N/A,,Clear,170,2013-07-05 20:56:00
4:15 PM,82.4,60.8,48,29.78,10.0,South,5.8,-,N/A,,Clear,170,2013-07-05 21:15:00
4:35 PM,82.4,60.8,48,29.78,10.0,South,4.6,-,N/A,,Clear,190,2013-07-05 21:35:00
4:56 PM,84.2,60.8,45,29.78,10.0,South,6.9,-,N/A,,Clear,180,2013-07-05 21:56:00
5:15 PM,84.2,60.8,45,29.78,10.0,South,6.9,-,N/A,,Clear,170,2013-07-05 22:15:00
5:35 PM,84.2,60.8,45,29.78,10.0,SSW,6.9,-,N/A,,Clear,200,2013-07-05 22:35:00
5:56 PM,86.0,60.8,43,29.78,10.0,SSW,4.6,-,N/A,,Clear,210,2013-07-05 22:56:00
6:15 PM,84.2,60.8,45,29.78,10.0,SW,3.5,-,N/A,,Clear,230,2013-07-05 23:15:00
6:35 PM,84.2,62.6,48,29.78,10.0,SW,6.9,-,N/A,,Clear,220,2013-07-05 23:35:00
6:56 PM,84.2,60.8,45,29.78,10.0,SW,5.8,-,N/A,,Clear,220,2013-07-05 23:56:00
7:15 PM,82.4,62.6,51,29.78,10.0,SSW,5.8,-,N/A,,Clear,200,2013-07-06 00:15:00
7:35 PM,82.4,62.6,51,29.78,10.0,South,6.9,-,N/A,,Clear,190,2013-07-06 00:35:00
7:56 PM,82.4,62.6,51,29.78,10.0,South,5.8,-,N/A,,Clear,180,2013-07-06 00:56:00
8:15 PM,80.6,64.4,58,29.78,10.0,South,4.6,-,N/A,,Clear,190,2013-07-06 01:15:00
8:35 PM,78.8,64.4,61,29.78,10.0,South,3.5,-,N/A,,Clear,190,2013-07-06 01:35:00
8:55 PM,78.8,64.4,61,29.78,10.0,South,3.5,-,N/A,,Clear,170,2013-07-06 01:55:00
9:15 PM,78.8,64.4,61,29.78,10.0,South,3.5,-,N/A,,Clear,170,2013-07-06 02:15:00
9:35 PM,77.0,64.4,65,29.78,10.0,Calm,Calm,-,N/A,,Clear,0,2013-07-06 02:35:00
9:56 PM,77.0,64.4,65,29.79,10.0,SSE,3.5,-,N/A,,Clear,150,2013-07-06 02:56:00
10:15 PM,75.2,64.4,69,29.80,10.0,SSE,4.6,-,N/A,,Clear,160,2013-07-06 03:15:00
10:35 PM,75.2,64.4,69,29.81,10.0,SSE,3.5,-,N/A,,Clear,160,2013-07-06 03:35:00
10:56 PM,73.4,64.4,73,29.80,10.0,SSE,3.5,-,N/A,,Clear,160,2013-07-06 03:56:00
11:15 PM,73.4,64.4,73,29.80,10.0,SSE,4.6,-,N/A,,Clear,150,2013-07-06 04:15:00
11:35 PM,73.4,64.4,73,29.81,10.0,SSE,3.5,-,N/A,,Clear,160,2013-07-06 04:35:00
11:56 PM,73.4,64.4,73,29.81,10.0,SSE,3.5,-,N/A,,Clear,150,2013-07-06 04:56:00